Details for Norwegian Air Shuttle at LEBL




Go Back


Latest METAR
Local Time

LEBL 221130Z 23013KT 9999 FEW020 28/20 Q1022 NOSIG
22/09/2018, 13:50:35

Description
Results
Norwegian Air Shuttle Logo
Number of Pilots based at LEBL
1 Pilots Based here
Number of Norwegian Air Shuttle Flights Departed from LEBL
0 Flights Departed
Number of Norwegian Air Shuttle Flights Arrived at LEBL
0 Flights Arrived
Number of Norwegian Air Shuttle Schedules Departing from LEBL
13 Schedules
Number of Norwegian Air Shuttle Schedules Arriving at LEBL
12 Schedules
Number of Norwegian Air Shuttle Schedules Departing from LEBL availible today
4 Schedules Today
Number of Norwegian Air Shuttle Schedules Arriving at LEBL availible today
5 Schedules Today
Average Landing Rate at LEBL
-189 fpm
Norwegian Air Shuttle Average Landing Rate at LEBL
0 fpm
Total Fuel Purchased at LEBL by Norwegian Air Shuttle
0.00 kgs / 0.00 lbs

Pilots Based at LEBL


Pilot ID
Pilot Name
Pilot Rank
No. of Flights
No. of Flying Hours
Jesus Serrano
4
21.09
Content